GFSNIL_sfc_rhum_330.txt.gz
RH
70 65 60 63 67 68 65 64 62 60 60 66 67 76 78 79 80 80 87 88 86 89
76 68 64 60 66 68 64 62 70 64 66 64 70 68 78 78 81 81 84 86 90 89
78 70 64 63 58 68 64 63 66 68 67 67 67 67 74 74 78 81 82 80 86 89
78 73 67 65 59 57 66 64 64 66 67 68 67 68 69 72 73 77 81 82 84 87
80 75 73 75 64 60 64 64 62 63 65 66 66 68 67 70 67 75 81 83 84 84
88 88 87 82 74 62 59 61 59 62 67 66 68 67 69 68 70 74 77 80 83 82
93 89 84 83 72 66 61 58 58 62 65 67 64 65 66 68 73 75 75 79 81 81
94 88 85 85 79 72 64 60 58 58 62 67 65 60 68 68 75 77 78 81 81 84
91 94 89 87 86 79 80 65 64 60 63 64 57 74 82 76 74 76 80 84 88 90
95 94 92 85 83 82 81 76 70 66 60 66 69 84 85 90 76 81 82 88 92 96
94 96 92 87 86 87 84 85 80 74 70 70 76 100 100 100 85 90 94 95 95 95
91 95 96 97 90 89 91 85 83 78 78 79 98 100 100 100 96 97 96 96 94 95
88 92 94 97 99 98 92 90 95 98 94 98 97 100 100 99 97 99 100 100 99 100
82 91 92 93 96 98 99 100 99 99 99 99 99 99 100 100 98 98 99 99 100 100

GFSNIL_sfc_rhum_336.txt.gz
RH
95 95 91 82 84 85 84 86 76 70 69 81 86 89 94 93 87 86 84 89 83 87
94 96 92 89 87 85 79 79 78 76 77 83 90 87 87 86 86 83 83 85 85 88
93 92 93 90 91 88 86 78 80 78 82 82 83 85 85 84 84 87 88 86 90 92
91 93 94 92 89 87 86 84 77 78 81 78 76 81 89 87 86 88 89 88 92 90
90 91 94 93 89 86 83 84 83 80 78 76 71 71 83 85 85 87 90 90 90 90
89 90 94 90 90 89 87 88 83 81 81 75 72 68 80 83 82 86 85 86 88 88
88 90 92 94 89 91 87 85 84 78 75 73 69 66 73 80 82 86 86 87 87 85
85 86 87 93 91 89 88 84 78 79 76 71 67 64 67 74 82 88 88 88 88 87
85 84 87 89 94 95 89 87 83 81 82 80 69 82 86 74 76 84 88 92 91 88
87 86 87 87 90 93 96 90 92 92 85 84 77 90 91 91 70 78 83 85 89 91
93 89 86 88 91 94 95 97 94 93 85 84 80 94 95 94 78 80 80 80 85 87
96 94 90 90 93 93 96 97 95 96 95 95 83 97 96 97 85 84 88 84 83 88
96 96 93 92 92 92 92 97 98 98 95 98 95 100 98 96 88 88 90 92 90 100
96 96 92 92 89 91 92 92 95 96 98 99 99 96 100 97 86 88 90 92 97 96

GFSNIL_sfc_rhum_339.txt.gz
RH
93 96 96 92 91 92 92 88 81 80 75 77 82 85 90 94 97 95 97 96 87 84
92 95 98 94 89 91 90 88 87 84 76 78 85 87 82 88 96 98 97 96 94 89
90 92 94 95 95 91 89 87 89 84 77 75 79 88 89 87 91 95 97 94 92 90
87 89 93 96 96 91 90 87 88 84 79 74 74 83 87 87 86 93 89 89 89 89
87 86 90 94 95 95 92 90 86 89 86 76 77 82 84 85 79 88 88 88 87 89
88 87 89 90 92 94 96 92 89 89 93 86 82 79 84 85 81 82 84 85 88 89
89 88 88 88 89 91 93 95 93 88 86 86 83 81 80 83 86 86 83 85 86 86
89 86 85 86 88 90 90 93 90 91 90 89 90 82 82 80 85 85 86 86 85 87
87 87 85 86 87 88 90 91 93 93 92 93 93 100 94 83 80 84 85 88 89 87
82 90 88 84 85 89 92 92 94 94 93 92 89 99 96 93 76 80 82 84 86 92
81 88 91 88 88 90 91 94 95 94 94 92 88 99 99 98 82 82 82 85 85 88
77 83 93 95 94 90 92 93 93 94 93 94 92 100 100 100 90 84 82 85 85 85
76 79 85 96 96 91 90 89 90 93 96 98 94 100 100 100 91 93 88 84 87 99
70 74 82 92 96 95 92 90 92 92 95 95 97 98 100 100 98 96 93 87 90 90

GFSNIL_sfc_rhum_342.txt.gz
RH
90 94 95 97 97 94 93 92 93 94 89 85 87 92 92 95 96 95 95 93 91 89
90 91 93 96 96 96 91 94 92 92 93 88 81 87 85 79 90 96 96 95 93 92
88 88 91 92 95 96 95 94 93 92 91 88 80 83 82 77 77 91 96 95 96 95
87 87 88 91 91 94 94 92 94 90 89 85 82 77 82 78 78 81 89 93 96 96
86 86 86 88 88 91 94 95 95 91 88 87 84 81 81 81 76 84 86 89 94 95
86 88 87 87 87 87 90 95 94 92 93 90 88 83 84 83 83 82 84 88 92 92
85 88 88 86 88 86 87 92 95 92 91 88 86 83 79 80 85 86 88 89 86 84
80 81 88 86 87 88 88 88 90 93 92 93 90 89 89 81 84 85 85 88 85 84
76 78 81 88 88 87 87 88 89 91 94 97 96 100 100 99 90 86 87 88 90 85
72 79 80 82 82 88 90 90 91 91 91 94 96 100 100 100 93 88 88 87 87 88
74 75 82 82 85 87 90 91 92 91 90 94 88 100 100 100 96 96 87 87 88 88
73 76 81 88 91 92 91 90 89 87 90 95 93 100 100 100 98 97 95 89 87 90
70 76 81 86 91 91 89 86 85 85 88 92 94 95 99 99 96 98 96 97 95 100
68 78 78 86 88 96 88 88 87 87 88 88 93 94 96 98 97 98 96 94 94 94